Regional Weather Roundup
Issued by NWS

Home | Current Version | Previous Version | Graphics & Text | Print | Product List | Glossary On
Versions: 1 2 3 4 5 6 7 8 9 10 11 12 13 14 15 16 17 18 19 20 21 22 23 24 25 26 27 28 29 30 31 32 33 34 35 36 37 38 39 40 41 42 43 44 45 46 47 48 49 50
840
ASUS43 KMKX 130620
RWRWI

WISCONSIN REGIONAL WEATHER ROUNDUP
NATIONAL WEATHER SERVICE MILWAUKEE/SULLIVAN WI
1200 AM CST WED DEC 13 2017

NOTE: "FAIR" INDICATES FEW OR NO CLOUDS BELOW 12,000 FEET WITH NO
SIGNIFICANT WEATHER AND/OR OBSTRUCTIONS TO VISIBILITY.

WIZ001-002-006>008-014>016-023>028-130700-
NORTHWEST WISCONSIN

CITY           SKY/WX    TMP DP  RH WIND       PRES   REMARKS
SUPERIOR ARPT  CLOUDY    16  11  82 E5        29.66F WCI   9
6HR MIN TEMP:  14; 6HR MAX TEMP:  16;

ASHLAND        CLOUDY    13   9  84 SE3       29.69F
6HR MIN TEMP:  12; 6HR MAX TEMP:  13; 6HR PCP:  0.02;

HAYWARD        CLOUDY    14   9  80 SE8       29.64F WCI   3
6HR MIN TEMP:  12; 6HR MAX TEMP:  14; 6HR PCP:  0.01;

SIREN          CLOUDY    18  13  81 SE7       29.59F WCI   8
6HR MIN TEMP:  14; 6HR MAX TEMP:  18;

CUMBERLAND     CLOUDY    14  10  85 SE10      29.62F WCI   1
RICE LAKE      CLOUDY    16  11  82 SE8       29.66F WCI   5
6HR MIN TEMP:  13; 6HR MAX TEMP:  16;

CHETEK           N/A     16  11  82 SE9       29.66F WCI   4
6HR MIN TEMP:  13; 6HR MAX TEMP:  16;

LADYSMITH      CLOUDY    15  11  87 SE8       29.69F WCI   3
6HR MIN TEMP:  13; 6HR MAX TEMP:  15;

EAU CLAIRE     CLOUDY    19  12  74 SE7       29.67F WCI  10
6HR MIN TEMP:  15; 6HR MAX TEMP:  19; 6HR PCP: TRACE;

MENOMONIE      MOCLDY    19  14  79 E6        29.66F WCI  11
6HR MIN TEMP:  16; 6HR MAX TEMP:  19;

NEW RICHMOND   CLOUDY    21  16  81 SE8       29.59F WCI  11
OSCEOLA        CLOUDY    22  17  81 E9        29.62F WCI  11
6HR MIN TEMP:  17; 6HR MAX TEMP:  22;

$$

WIZ003>005-009-010-017-018-130700-
NORTH CENTRAL WISCONSIN

CITY           SKY/WX    TMP DP  RH WIND       PRES   REMARKS
MANITOWISH WTR FLURRIES  10   7  90 SE7       29.66F WCI  -2
6HR MIN TEMP:   9; 6HR MAX TEMP:  10;

ARBOR VITAE    FLURRIES  11   8  85 S6        29.67F WCI   2
6HR MIN TEMP:  11; 6HR MAX TEMP:  11;

WOODRUFF       FLURRIES  11   8  85 S6        29.67F WCI   2
6HR MIN TEMP:  11; 6HR MAX TEMP:  11;

RHINELANDER    FLURRIES  10   7  87 S3        29.69F
6HR MIN TEMP:  10; 6HR MAX TEMP:  11; 6HR PCP: TRACE;

EAGLE RIVER    FLURRIES  10   4  77 SE5       29.69F WCI   2
6HR MIN TEMP:   5; 6HR MAX TEMP:  10;

LAND O LAKES   LGT SNOW  10   4  80 S3        29.71F
6HR MIN TEMP:   1; 6HR MAX TEMP:  10;

PHILLIPS       CLOUDY    11   8  87 SE8       29.66F WCI  -1
6HR MIN TEMP:  10; 6HR MAX TEMP:  11; 6HR PCP:  0.01;

TOMAHAWK       LGT SNOW  10   7  85 CALM      29.70F
6HR MIN TEMP:  10; 6HR MAX TEMP:  12;

MEDFORD        CLOUDY    11   9  92 SE5       29.68F WCI   3
6HR MIN TEMP:  11; 6HR MAX TEMP:  11;

MERRILL        FLURRIES  12   8  83 SE6       29.73F WCI   2
6HR MIN TEMP:  11; 6HR MAX TEMP:  13;

$$

WIZ029-030-035-036-043>047-130700-
CENTRAL WISCONSIN

CITY           SKY/WX    TMP DP  RH WIND       PRES   REMARKS
WAUSAU         FLURRIES  12   7  80 SE9       29.71F WCI   0
6HR MIN TEMP:  12; 6HR MAX TEMP:  12; 6HR PCP:  0.01;

MOSINEE        CLOUDY    12  10  92 SE7       29.74F WCI   2
MARSHFIELD     CLOUDY    14  11  87 SE8       29.70F WCI   3
6HR MIN TEMP:  13; 6HR MAX TEMP:  14; 6HR PCP: TRACE;

STEVENS POINT  CLOUDY    12   7  78 SE6       29.76F WCI   3
6HR MIN TEMP:  12; 6HR MAX TEMP:  13;

WAUPACA        FLURRIES  17  10  73 SE5       29.81F WCI  10
6HR MIN TEMP:  15; 6HR MAX TEMP:  18;

WAUTOMA        FLURRIES  15   9  76 SE7       29.81F WCI   5
6HR MIN TEMP:  13; 6HR MAX TEMP:  15;

WISC RAPIDS    CLOUDY    15  10  80 SE8       29.76F WCI   4
6HR MIN TEMP:  14; 6HR MAX TEMP:  15; 6HR PCP: TRACE;

CAMP DOUGLAS   CLOUDY    19  12  72 SE8       29.75F WCI   9
6HR MIN TEMP:  17; 6HR MAX TEMP:  19; 6HR PCP: TRACE;

$$

WIZ011>013-019>022-031-037>040-048>050-130700-
NORTHEAST WISCONSIN

CITY           SKY/WX    TMP DP  RH WIND       PRES   REMARKS
ANTIGO         FLURRIES  10   6  84 S6        29.73F WCI   0
6HR MIN TEMP:  10; 6HR MAX TEMP:  11;

SHAWANO        CLOUDY    17   2  53 SW6       29.82F WCI   8
6HR MIN TEMP:  16; 6HR MAX TEMP:  17;

OCONTO         CLOUDY    13   8  81 CALM      29.84F
6HR MIN TEMP:   3; 6HR MAX TEMP:  13;

STURGEON BAY   CLOUDY    14   7  73 SW5       29.83F WCI   6
6HR MIN TEMP:  13; 6HR MAX TEMP:  16;

GREEN BAY      CLOUDY    16   3  56 SW5       29.84F WCI   9
6HR MIN TEMP:  12; 6HR MAX TEMP:  16;

MANITOWOC      CLOUDY    15   4  61 W5        29.86F WCI   8
6HR MIN TEMP:   6; 6HR MAX TEMP:  15;

APPLETON       LGT SNOW  14   9  79 S3        29.81F
CLINTONVILLE   LGT SNOW  14   9  79 S3        29.81F
OSHKOSH        LGT SNOW  16  10  77 S6        29.82F WCI   7
6HR MIN TEMP:  14; 6HR MAX TEMP:  16; 6HR PCP: TRACE;

$$

WIZ032>034-041-042-053>061-130700-
SOUTHWEST WISCONSIN

CITY           SKY/WX    TMP DP  RH WIND       PRES   REMARKS
LA CROSSE      CLOUDY    26  16  65 S14       29.70F WCI  14
6HR MIN TEMP:  21; 6HR MAX TEMP:  26;

SPARTA         CLOUDY    24  14  67 S5        29.73F WCI  18
6HR MIN TEMP:  18; 6HR MAX TEMP:  24;

VIROQUA        CLOUDY    22  15  74 S9        29.72F WCI  12
6HR MIN TEMP:  18; 6HR MAX TEMP:  22;

BOSCOBEL       CLOUDY    27  13  55 S6        29.79F WCI  20
6HR MIN TEMP:  22; 6HR MAX TEMP:  27;

PRAIRIE DU CHI CLOUDY    29  15  56 S6        29.77F WCI  23
6HR MIN TEMP:  24; 6HR MAX TEMP:  29;

PLATTEVILLE    CLOUDY    24  15  67 S9        29.80F WCI  14
6HR MIN TEMP:  22; 6HR MAX TEMP:  24;

$$

WIZ056-057-062-063-064-067-068-130700-
SOUTH CENTRAL WISCONSIN

CITY           SKY/WX    TMP DP  RH WIND       PRES   REMARKS
REEDSBURG      CLOUDY    21  10  62 SE3       29.79F
BARABOO/DELLS  CLOUDY    20  10  66 SE6       29.78F WCI  12
6HR MIN TEMP:  17; 6HR MAX TEMP:  20;

LONE ROCK      CLOUDY    22  14  71 E7        29.81F WCI  13
6HR MIN TEMP:  19; 6HR MAX TEMP:  22; 6HR PCP: TRACE;

MINERAL POINT  CLOUDY    27  12  54 S7        29.78F WCI  19
MADISON        CLOUDY    21  10  62 S8        29.81F WCI  11
6HR MIN TEMP:  17; 6HR MAX TEMP:  21; 6HR PCP: TRACE;

MIDDLETON      CLOUDY    23  12  61 S6        29.81F WCI  16
6HR MIN TEMP:  20; 6HR MAX TEMP:  23;

WATERTOWN      CLOUDY    19   9  65 S3        29.85F
6HR MIN TEMP:  14; 6HR MAX TEMP:  19;

MONROE         CLOUDY    23  10  58 S9        29.81F WCI  13
JANESVILLE     CLOUDY    23  10  58 S6        29.84F WCI  16
$$

WIZ051-052-058>065-066-070>072-130700-
SOUTHEAST WISCONSIN

CITY           SKY/WX    TMP DP  RH WIND       PRES   REMARKS
MILWAUKEE      CLOUDY    20   4  50 SW5       29.87F WCI  13
6HR MIN TEMP:  19; 6HR MAX TEMP:  20;

WAUKESHA       FLURRIES  18   5  57 CALM      29.87F
MILWAUKEE/TIMM CLOUDY    19   1  45 CALM      29.87F
RACINE         CLOUDY    19   5  54 CALM      29.90F
6HR MIN TEMP:  16; 6HR MAX TEMP:  19;

BURLINGTON       N/A    N/A N/A N/A MISG        N/A
KENOSHA        CLOUDY    20   6  55 SW5       29.87F WCI  13
6HR MIN TEMP:  15; 6HR MAX TEMP:  20;

FOND DU LAC    LGT SNOW  17   6  62 S5        29.84F WCI  10
6HR MIN TEMP:  15; 6HR MAX TEMP:  17; 6HR PCP: TRACE;

SHEBOYGAN      CLOUDY    16   6  65 SW5       29.86F WCI   9
6HR MIN TEMP:  13; 6HR MAX TEMP:  16;

WEST BEND      CLOUDY    18   3  53 CALM      29.85F
JUNEAU         CLOUDY    17   8  67 SE3       29.84F
6HR MIN TEMP:  11; 6HR MAX TEMP:  17;

$$

LSZ147-162-130700-
LAKE SUPERIOR

STATION/POSITION TIME  TEMP    WIND        PRES    WAVE
                       AIR SEA DIR/SP/G            HT/PER
                 (UTC) (F)     (DEG/KT/KT) (MB)    (FT/S)
DEVILS ISLAND    0600   18     150/ 11/ 15 1007.1F
SAXON HARBOR     0540   15                 1005.8F
$$

LMZ867-665-643>646-130700-
LAKE MICHIGAN

STATION/POSITION TIME  TEMP    WIND        PRES    WAVE
                       AIR SEA DIR/SP/G            HT/PER
                 (UTC) (F)     (DEG/KT/KT) (MB)    (FT/S)
NORTHPORT PIER   0540   16        CALM     1010.5F
KEWAUNEE LAKESHO 0554   15     260/  4/  7 1010.1F
SHEBOYGAN LAKESH 0600   17     260/  5/  8 1012.3F
PORT WASHI



USA.gov is the U.S. government's official web portal to all federal, state and local government web resources and services.